Login

Calgary

Pos Pair Lane Name Born Nation Time
1 4 - McKenzie Browne 1995 USA 1:25.68
1 4 - Erin Jackson 1992 USA 1:25.68
1 4 - Kimi Goetz 1994 USA 1:25.68
2 5 - Carolina Hiller 1997 Canada 1:25.73
2 5 - Brooklyn McDougall 1998 Canada 1:25.73
2 5 - Ivanie Blondin 1990 Canada 1:25.73
3 5 - Michelle De Jong 1999 Netherlands 1:25.95
3 5 - Femke Kok 2000 Netherlands 1:25.95
3 5 - Isabel Grevelt 2002 Netherlands 1:25.95
4 2 - Chong Pei 1997 China 1:26.80
4 2 - Jingzhu Jin 1992 China 1:26.80
4 2 - Qishi Li 1993 China 1:26.80
5 4 - Konami Soga 1995 Japan 1:27.34
5 4 - Kurumi Inagawa 1999 Japan 1:27.34
5 4 - Sumire Kikuchi 1996 Japan 1:27.34
6 3 - Martyna Baran 2001 Poland 1:27.38
6 3 - Andzelika Wójcik 1996 Poland 1:27.38
6 3 - Karolina Bosiek 2000 Poland 1:27.38
7 3 - Alina Dauranova 2004 Kazakhstan 1:27.68
7 3 - Yekaterina Aydova 1991 Kazakhstan 1:27.68
7 3 - Nadezhda Morozova 1998 Kazakhstan 1:27.68
8 1 - Katja Franzen 1990 Germany 1:29.31
8 1 - Lea-Sophie Scholz 1999 Germany 1:29.31
8 1 - Michelle Uhrig 1996 Germany 1:29.31
9 2 - Min-Sun Kim 1999 South Korea 1:30.05
9 2 - Hyun-Yung Kim 1994 South Korea 1:30.05
9 2 - Na-Hyun Lee 2005 South Korea 1:30.05
10 1 - Aurora Løvås 2005 Norway 1:30.25
10 1 - Julie Nistad Samsonsen 2000 Norway 1:30.25
10 1 - Martine Ripsrud 1995 Norway 1:30.25

Info

What World Cup A-group
Discipline Team Sprint
Host Calgary
Nation Canada
Date Saturday 17.Dec 2022
Calendar 2022/2023
Air Temp 16.2 C
Ice Temp -7.9 C
Humidity 32.0 %